Location: Fornova de Taro
(44.7000°N, 10.1000°E)
Time: 02:35:54
(UTC+00:00)

SL-16 R/B - Pass Details

Date: 26 May 2022
Orbit: 986 x 1006 km, 99.6° (Epoch: 26 June)

Event Time Altitude Azimuth Distance (km) Brightness Sun altitude
Exits shadow 02:59:48 - 237° (WSW) 2,935 4.3 -6.9°
Reaches altitude 10° 03:00:45 10° 244° (WSW) 2,758 4.2 -6.7°
Maximum altitude 03:03:40 14° 273° (W) 2,512 4.2 -6.3°
Drops below altitude 10° 03:06:36 10° 301° (WNW) 2,774 4.7 -5.9°
Sets 03:10:40 0° 327° (NNW) 3,735 5.6 -5.3°
